Wenatchee, WA
on Tuesday, November 20, 2012

Tuesday
Previous Day Next Day
Daily Summary
 ActualAverageRecord
Temperature
Mean Temperature °F 32°F  
Max Temperature 55°F 39°F 62°F (1962)
Min Temperature 38°F 26°F 6°F (1985)
Degree Days
Heating Degree Days 18 33  
Month to date heating degree days 443 580  
Since 1 July heating degree days 890 1536  
Cooling Degree Days 0 0  
Month to date cooling degree days 0 0  
Year to date cooling degree days 888 249  
Moisture
Dew Point 38°F   
Average Humidity 76    
Maximum Humidity 92    
Minimum Humidity 59    
Precipitation
Precipitation 0.01 in 0.09 in 0.49 in (1966)
Month to date precipitation 0.35 1.40  
Year to date precipitation 7.33 13.74  
Snow
Snow 0.00 in 0.40 in in ()
Month to date snowfall 3.6  
Since 1 July snowfall 3.7  
Since 1 September snowfall 3.7  
Snow Depth in   
Wind
Wind Speed 4 mph   
Max Wind Speed 28 mph   
Max Gust Speed 35 mph   
Visibility 10 miles   
Events Rain   

Key: T is trace of precipitation, MM is missing value
Source: NWS Daily Summary
Time(PST)TemperatureDew PointHumidity Pressure Visibility Wind DirectionWind SpeedGust SpeedPrecipitationEvents Conditions
12:55 AM 43.0°F 37.9°F 82% 29.70 in 10.0 miles North 5.8 mph - N/A   Clear
1:55 AM 42.1°F 37.0°F 82% 29.72 in 10.0 miles NE 3.5 mph - N/A   Mostly Cloudy
2:55 AM 43.0°F 37.0°F 80% 29.74 in 10.0 miles Calm Calm - N/A   Scattered Clouds
3:55 AM 42.1°F 36.0°F 79% 29.73 in 10.0 miles Calm Calm - N/A   Mostly Cloudy
4:55 AM 41.0°F 37.0°F 86% 29.72 in 10.0 miles NE 4.6 mph - N/A   Partly Cloudy
5:55 AM 41.0°F 37.0°F 86% 29.72 in 10.0 miles ENE 3.5 mph - N/A   Overcast
6:55 AM 42.1°F 37.0°F 82% 29.70 in 10.0 miles Calm Calm - N/A   Clear
7:55 AM 39.9°F 37.0°F 89% 29.70 in 10.0 miles Calm Calm - N/A   Overcast
8:55 AM 42.1°F 37.0°F 82% 29.68 in 10.0 miles Calm Calm - N/A   Overcast
9:55 AM 42.1°F 37.9°F 85% 29.66 in 10.0 miles Calm Calm - N/A   Overcast
10:55 AM 44.1°F 37.9°F 79% 29.65 in 10.0 miles Calm Calm - N/A   Overcast
11:04 AM 44.6°F 37.4°F 76% 29.63 in 10.0 miles Calm Calm - N/A   Overcast
11:11 AM 44.6°F 39.2°F 81% 29.62 in 10.0 miles Calm Calm - N/A   Overcast
11:55 AM 52.0°F 43.0°F 71% 29.60 in 10.0 miles ENE 11.5 mph 18.4 mph N/A   Overcast
12:19 PM 50.0°F 42.8°F 76% 29.59 in 10.0 miles East 11.5 mph - N/A   Overcast
12:55 PM 51.1°F 42.1°F 71% 29.60 in 10.0 miles East 11.5 mph 19.6 mph N/A   Overcast
1:55 PM 52.0°F 44.1°F 74% 29.59 in 10.0 miles East 16.1 mph - N/A   Mostly Cloudy
2:55 PM 54.0°F 42.1°F 64% 29.58 in 10.0 miles ESE 13.8 mph - N/A   Partly Cloudy
3:55 PM 54.0°F 39.9°F 59% 29.60 in 10.0 miles Variable 3.5 mph 18.4 mph N/A   Overcast
4:25 PM 46.4°F 39.2°F 76% 29.64 in 9.0 miles NNW 23.0 mph 34.5 mph 0.00 in Rain Light Rain
4:55 PM 46.9°F 37.0°F 68% 29.64 in 10.0 miles NNW 5.8 mph - 0.01 in   Scattered Clouds
5:55 PM 43.0°F 36.0°F 76% 29.68 in 10.0 miles SW 5.8 mph - N/A   Clear
6:55 PM 41.0°F 35.1°F 79% 29.69 in 10.0 miles Calm Calm - N/A   Clear
7:55 PM 39.0°F 34.0°F 82% 29.67 in 10.0 miles Calm Calm - N/A   Clear
8:55 PM 37.9°F 34.0°F 86% 29.69 in 10.0 miles West 3.5 mph - N/A   Clear
9:55 PM 41.0°F 35.1°F 79% 29.69 in 10.0 miles Calm Calm - N/A   Scattered Clouds
10:55 PM 37.9°F 35.1°F 89% 29.68 in 10.0 miles NNE 3.5 mph - N/A   Clear
11:55 PM 39.0°F 36.0°F 89% 29.67 in 10.0 miles Calm Calm - N/A   Overcast
Moon Phase
Nov. 20 Nov. 28 Dec. 06 Dec. 13 Dec. 20
Sunrise:07:13 AM (PST) Moon Rise:12:35 PM (PST)
Sunset:04:19 PM (PST) Moon Set:No Moon Set/

Copyright © 2014 The Weather Underground, Inc.